TimeEST,TemperatureF,Dew PointF,Humidity,Sea Level PressureIn,VisibilityMPH,Wind Direction,Wind SpeedMPH,Gust SpeedMPH,PrecipitationIn,Events,Conditions,WindDirDegrees,DateUTC
12:15 AM,35.6,24.8,65,30.04,10.0,NE,3.5,-,N/A,,Overcast,50,2012-11-07 05:15:00
12:35 AM,35.6,24.8,65,30.02,10.0,NE,4.6,-,N/A,,Mostly Cloudy,40,2012-11-07 05:35:00
12:55 AM,35.6,26.6,70,30.00,10.0,NNE,5.8,-,N/A,,Scattered Clouds,20,2012-11-07 05:55:00
1:15 AM,37.4,26.6,65,29.99,10.0,NNE,5.8,-,N/A,,Clear,20,2012-11-07 06:15:00
1:35 AM,37.4,26.6,65,29.98,10.0,NE,4.6,-,N/A,,Clear,40,2012-11-07 06:35:00
1:55 AM,37.4,26.6,65,29.99,10.0,NNE,5.8,-,N/A,,Scattered Clouds,30,2012-11-07 06:55:00
2:15 AM,35.6,26.6,70,29.98,10.0,NNE,3.5,-,N/A,,Clear,20,2012-11-07 07:15:00
2:35 AM,35.6,26.6,70,29.97,10.0,NNE,3.5,-,N/A,,Clear,20,2012-11-07 07:35:00
2:55 AM,35.6,26.6,70,29.96,10.0,NNE,4.6,-,N/A,,Clear,30,2012-11-07 07:55:00
3:15 AM,35.6,26.6,70,29.95,10.0,NNE,4.6,-,N/A,,Scattered Clouds,30,2012-11-07 08:15:00
3:55 AM,37.4,26.6,65,29.93,10.0,NE,8.1,-,N/A,,Scattered Clouds,40,2012-11-07 08:55:00
4:15 AM,37.4,26.6,65,29.93,10.0,NNE,6.9,-,N/A,,Scattered Clouds,30,2012-11-07 09:15:00
4:35 AM,37.4,26.6,65,29.92,10.0,NNE,9.2,17.3,N/A,,Clear,30,2012-11-07 09:35:00
4:55 AM,37.4,24.8,60,29.92,10.0,NNE,5.8,-,N/A,,Clear,20,2012-11-07 09:55:00
5:35 AM,37.4,17.6,45,29.93,10.0,NE,10.4,-,N/A,,Scattered Clouds,40,2012-11-07 10:35:00
5:55 AM,37.4,19.4,48,29.94,10.0,NNE,6.9,-,N/A,,Clear,30,2012-11-07 10:55:00
6:15 AM,37.4,23.0,56,29.94,10.0,NNE,5.8,-,N/A,,Scattered Clouds,30,2012-11-07 11:15:00
6:35 AM,37.4,24.8,60,29.95,10.0,NE,6.9,-,N/A,,Scattered Clouds,50,2012-11-07 11:35:00
6:55 AM,37.4,26.6,65,29.94,10.0,NNE,6.9,-,N/A,,Mostly Cloudy,30,2012-11-07 11:55:00
7:15 AM,37.4,26.6,65,29.94,10.0,NNE,4.6,-,N/A,,Overcast,20,2012-11-07 12:15:00
7:35 AM,37.4,26.6,65,29.95,10.0,North,3.5,-,N/A,,Overcast,10,2012-11-07 12:35:00
7:55 AM,37.4,26.6,65,29.94,10.0,North,4.6,-,N/A,,Overcast,360,2012-11-07 12:55:00
8:15 AM,37.4,28.4,70,29.94,10.0,North,5.8,-,N/A,,Overcast,10,2012-11-07 13:15:00
8:35 AM,37.4,28.4,70,29.93,10.0,North,6.9,-,N/A,,Mostly Cloudy,360,2012-11-07 13:35:00
8:55 AM,37.4,28.4,70,29.92,10.0,North,6.9,-,N/A,,Overcast,10,2012-11-07 13:55:00
9:15 AM,39.2,28.4,65,29.91,10.0,North,8.1,-,N/A,,Mostly Cloudy,10,2012-11-07 14:15:00
9:35 AM,39.2,28.4,65,29.90,10.0,North,3.5,-,N/A,,Scattered Clouds,10,2012-11-07 14:35:00
9:55 AM,39.2,28.4,65,29.90,10.0,North,6.9,-,N/A,,Mostly Cloudy,10,2012-11-07 14:55:00
10:15 AM,39.2,28.4,65,29.90,10.0,NNE,5.8,16.1,N/A,,Overcast,20,2012-11-07 15:15:00
10:35 AM,39.2,28.4,65,29.90,10.0,NNE,9.2,-,N/A,,Overcast,20,2012-11-07 15:35:00
10:55 AM,39.2,28.4,65,29.90,10.0,North,8.1,-,N/A,,Overcast,360,2012-11-07 15:55:00
11:15 AM,39.2,28.4,65,29.89,10.0,North,9.2,-,N/A,,Overcast,10,2012-11-07 16:15:00
11:35 AM,39.2,28.4,65,29.89,10.0,North,4.6,-,N/A,,Mostly Cloudy,10,2012-11-07 16:35:00
11:55 AM,39.2,28.4,65,29.88,10.0,NNE,5.8,-,N/A,,Overcast,20,2012-11-07 16:55:00
12:15 PM,37.4,28.4,70,29.88,10.0,North,9.2,-,N/A,,Overcast,360,2012-11-07 17:15:00
12:35 PM,37.4,32.0,81,29.88,7.0,NNE,6.9,18.4,N/A,,Overcast,20,2012-11-07 17:35:00
12:55 PM,37.4,32.0,81,29.86,7.0,North,5.8,-,N/A,,Overcast,360,2012-11-07 17:55:00
1:15 PM,37.4,32.0,81,29.86,5.0,North,9.2,20.7,0.01,,Overcast,360,2012-11-07 18:15:00
1:35 PM,37.4,32.0,81,29.86,7.0,North,8.1,-,0.02,,Overcast,350,2012-11-07 18:35:00
1:55 PM,37.4,32.0,81,29.87,10.0,North,9.2,18.4,0.02,,Overcast,10,2012-11-07 18:55:00
2:15 PM,37.4,32.0,81,29.88,10.0,North,10.4,16.1,N/A,,Overcast,360,2012-11-07 19:15:00
2:35 PM,37.4,33.8,87,29.88,7.0,North,5.8,-,0.01,,Overcast,360,2012-11-07 19:35:00
2:55 PM,37.4,33.8,87,29.88,10.0,North,8.1,-,0.01,,Overcast,360,2012-11-07 19:55:00
3:15 PM,37.4,33.8,87,29.87,10.0,North,5.8,-,N/A,,Overcast,350,2012-11-07 20:15:00
3:35 PM,37.4,33.8,87,29.87,10.0,NNW,6.9,-,0.01,,Overcast,340,2012-11-07 20:35:00
3:55 PM,37.4,33.8,87,29.87,10.0,North,8.1,-,0.01,,Overcast,350,2012-11-07 20:55:00
4:15 PM,35.6,33.8,93,29.86,10.0,NNW,10.4,-,N/A,,Overcast,340,2012-11-07 21:15:00
4:35 PM,35.6,33.8,93,29.86,10.0,North,9.2,16.1,N/A,,Overcast,350,2012-11-07 21:35:00
4:55 PM,35.6,33.8,93,29.86,7.0,NNW,11.5,17.3,0.01,,Overcast,340,2012-11-07 21:55:00
5:15 PM,35.6,33.8,93,29.86,5.0,NNW,9.2,-,N/A,,Overcast,340,2012-11-07 22:15:00
5:35 PM,35.6,33.8,93,29.86,7.0,NNW,5.8,-,0.01,,Overcast,330,2012-11-07 22:35:00
5:55 PM,35.6,33.8,93,29.87,5.0,NNW,6.9,-,0.01,,Overcast,340,2012-11-07 22:55:00
6:15 PM,35.6,33.8,93,29.87,5.0,NNW,8.1,-,N/A,,Overcast,340,2012-11-07 23:15:00
6:35 PM,35.6,33.8,93,29.87,4.0,NW,6.9,17.3,0.01,,Overcast,320,2012-11-07 23:35:00
6:55 PM,35.6,33.8,93,29.87,5.0,NNW,9.2,-,0.01,,Overcast,330,2012-11-07 23:55:00
7:15 PM,35.6,33.8,93,29.87,5.0,NNW,6.9,-,N/A,,Overcast,330,2012-11-08 00:15:00
7:35 PM,35.6,33.8,93,29.87,5.0,NNW,6.9,-,0.01,,Overcast,340,2012-11-08 00:35:00
7:55 PM,35.6,33.8,93,29.86,5.0,NNW,4.6,-,0.01,,Overcast,330,2012-11-08 00:55:00
8:15 PM,35.6,33.8,93,29.87,7.0,NNW,8.1,-,N/A,,Overcast,340,2012-11-08 01:15:00
8:35 PM,35.6,33.8,93,29.87,10.0,NNW,4.6,-,0.01,,Overcast,340,2012-11-08 01:35:00
8:55 PM,35.6,33.8,93,29.87,7.0,NNW,5.8,-,0.01,,Overcast,340,2012-11-08 01:55:00
9:15 PM,35.6,33.8,93,29.86,10.0,NNW,8.1,-,N/A,,Overcast,340,2012-11-08 02:15:00
9:35 PM,35.6,33.8,93,29.86,7.0,NNW,4.6,-,N/A,,Overcast,330,2012-11-08 02:35:00
9:55 PM,35.6,33.8,93,29.85,10.0,NNW,9.2,-,N/A,,Overcast,340,2012-11-08 02:55:00
10:15 PM,35.6,33.8,93,29.85,10.0,NNW,10.4,-,N/A,,Overcast,340,2012-11-08 03:15:00
10:35 PM,35.6,32.0,87,29.84,7.0,NW,9.2,16.1,N/A,,Overcast,320,2012-11-08 03:35:00
10:55 PM,33.8,32.0,93,29.83,7.0,NNW,9.2,19.6,N/A,,Overcast,330,2012-11-08 03:55:00
11:15 PM,33.8,32.0,93,29.83,7.0,NNW,6.9,18.4,N/A,,Overcast,340,2012-11-08 04:15:00
11:35 PM,33.8,32.0,93,29.82,5.0,NNW,9.2,19.6,N/A,,Overcast,340,2012-11-08 04:35:00
11:55 PM,35.6,32.0,87,29.82,10.0,NNW,5.8,-,N/A,,Overcast,330,2012-11-08 04:55:00